VOZ480 YPAD-YSCB

Flight info

Callsign VOZ480
Flight time N/A
Altitude 39000
Route BENDO DCT NATYA H21 WG
Aircraft B738/M-SDE2E3FGHIRWXY/LB1

Departure

Time 2026-05-05 18:37
Airport Adelaide International Airport (YPAD)

Arrival

Time N/A
Airport Canberra Airport (YSCB)
Time Latitude Longitude Altitude Speed Heading
2026-05-05 17:52 -34.93832 138.53995 23 ft 0 kts 318°
2026-05-05 17:52 -34.93775 138.54062 21 ft 0 kts 321°
2026-05-05 18:29 -34.93783 138.54071 21 ft 4 kts 321°
2026-05-05 18:29 -34.93801 138.54088 21 ft 2 kts 313°
2026-05-05 18:29 -34.93817 138.54111 19 ft 4 kts 303°
2026-05-05 18:30 -34.93829 138.54138 18 ft 2 kts 291°
2026-05-05 18:30 -34.93829 138.54139 21 ft 1 kts 291°
2026-05-05 18:33 -34.93830 138.54137 19 ft 1 kts 268°
2026-05-05 18:33 -34.93843 138.54131 19 ft 4 kts 192°
2026-05-05 18:34 -34.93901 138.54149 19 ft 13 kts 150°
2026-05-05 18:34 -34.93964 138.54211 19 ft 6 kts 141°
2026-05-05 18:34 -34.93986 138.54232 20 ft 0 kts 141°
2026-05-05 18:35 -34.93999 138.54245 20 ft 8 kts 142°
2026-05-05 18:36 -34.94085 138.54267 22 ft 16 kts 191°
2026-05-05 18:36 -34.94168 138.54175 21 ft 20 kts 230°
2026-05-05 18:36 -34.94434 138.53788 16 ft 103 kts 230°
2026-05-05 18:36 -34.95064 138.52868 46 ft 174 kts 230°
2026-05-05 18:37 -34.95919 138.51608 539 ft 209 kts 230°
2026-05-05 18:37 -34.96890 138.50159 1103 ft 228 kts 231°
2026-05-05 18:37 -34.97847 138.48766 1807 ft 206 kts 230°
2026-05-05 18:37 -34.98833 138.47353 2060 ft 235 kts 230°
2026-05-05 18:38 -34.99957 138.45731 2526 ft 261 kts 231°
2026-05-05 18:38 -35.01126 138.44031 3609 ft 261 kts 232°
2026-05-05 18:38 -35.02473 138.42533 4702 ft 266 kts 210°
2026-05-05 18:38 -35.04261 138.41997 5825 ft 270 kts 180°
2026-05-05 18:39 -35.06065 138.42644 6844 ft 276 kts 150°
2026-05-05 18:39 -35.07630 138.44030 7850 ft 280 kts 144°
2026-05-05 18:39 -35.09181 138.45532 8674 ft 289 kts 140°
2026-05-05 18:39 -35.10367 138.47495 9519 ft 297 kts 111°
2026-05-05 18:40 -35.10714 138.49993 10386 ft 303 kts 89°
2026-05-05 18:40 -35.10578 138.52662 10735 ft 328 kts 84°
2026-05-05 18:40 -35.10356 138.55542 11117 ft 349 kts 84°
2026-05-05 18:40 -35.10126 138.58526 11873 ft 356 kts 84°
2026-05-05 18:41 -35.09914 138.61547 12735 ft 359 kts 84°
2026-05-05 18:41 -35.09713 138.64605 13533 ft 364 kts 84°
2026-05-05 18:41 -35.09515 138.67712 14351 ft 368 kts 84°
2026-05-05 18:41 -35.09316 138.70857 15081 ft 375 kts 84°
2026-05-05 18:42 -35.09112 138.74053 15819 ft 379 kts 84°
2026-05-05 18:42 -35.08908 138.77239 16551 ft 384 kts 84°
2026-05-05 18:42 -35.08697 138.80518 17272 ft 388 kts 84°
2026-05-05 18:42 -35.08483 138.83828 17954 ft 393 kts 84°
2026-05-05 18:43 -35.08266 138.87170 18630 ft 398 kts 84°
2026-05-05 18:43 -35.08046 138.90554 19280 ft 402 kts 84°
2026-05-05 18:43 -35.07820 138.93980 19925 ft 406 kts 84°
2026-05-05 18:43 -35.07592 138.97435 20569 ft 410 kts 84°
2026-05-05 18:44 -35.07361 139.00916 21194 ft 414 kts 84°
2026-05-05 18:44 -35.07126 139.04437 21800 ft 417 kts 84°
2026-05-05 18:44 -35.06893 139.07932 22395 ft 421 kts 84°
2026-05-05 18:44 -35.06654 139.11514 22947 ft 425 kts 84°
2026-05-05 18:45 -35.06409 139.15136 23502 ft 428 kts 83°
2026-05-05 18:45 -35.06251 139.18782 23998 ft 434 kts 92°
2026-05-05 18:45 -35.06918 139.22391 24482 ft 439 kts 112°
2026-05-05 18:45 -35.08445 139.25614 25018 ft 441 kts 127°
2026-05-05 18:46 -35.10312 139.28599 25510 ft 444 kts 129°
2026-05-05 18:46 -35.12222 139.31569 25944 ft 448 kts 129°
2026-05-05 18:46 -35.14152 139.34589 26365 ft 452 kts 128°
2026-05-05 18:46 -35.16076 139.37647 26827 ft 455 kts 128°
2026-05-05 18:47 -35.17993 139.40740 27259 ft 458 kts 128°
2026-05-05 18:47 -35.19909 139.43853 27678 ft 461 kts 128°
2026-05-05 18:47 -35.21845 139.47004 28058 ft 464 kts 127°
2026-05-05 18:47 -35.23411 139.50399 28358 ft 469 kts 109°
2026-05-05 18:48 -35.24129 139.54280 28757 ft 468 kts 92°
2026-05-05 18:48 -35.24053 139.58260 29192 ft 467 kts 84°
2026-05-05 18:48 -35.23805 139.62232 29536 ft 470 kts 83°
2026-05-05 18:48 -35.23521 139.66227 29849 ft 473 kts 83°
2026-05-05 18:49 -35.23232 139.70251 30132 ft 477 kts 83°
2026-05-05 18:49 -35.22950 139.74305 30463 ft 479 kts 83°
2026-05-05 18:49 -35.22681 139.78389 30887 ft 479 kts 83°
2026-05-05 18:49 -35.22425 139.82436 31385 ft 476 kts 83°
2026-05-05 18:50 -35.22178 139.86423 31853 ft 475 kts 83°
2026-05-05 18:50 -35.21932 139.90449 32241 ft 475 kts 83°
2026-05-05 18:50 -35.21686 139.94475 32598 ft 475 kts 83°
2026-05-05 18:50 -35.21439 139.98502 32977 ft 475 kts 83°
2026-05-05 18:51 -35.21191 140.02522 33392 ft 473 kts 83°
2026-05-05 18:51 -35.20942 140.06531 33784 ft 472 kts 83°
2026-05-05 18:51 -35.20691 140.10534 34173 ft 471 kts 83°
2026-05-05 18:51 -35.20439 140.14523 34546 ft 470 kts 83°
2026-05-05 18:52 -35.20185 140.18512 34856 ft 471 kts 83°
2026-05-05 18:52 -35.19930 140.22502 35133 ft 471 kts 83°
2026-05-05 18:52 -35.19672 140.26510 35234 ft 476 kts 83°
2026-05-05 18:52 -35.19410 140.30554 35235 ft 478 kts 83°
2026-05-05 18:53 -35.18884 140.38649 35217 ft 472 kts 83°
2026-05-05 18:53 -35.18367 140.46566 35234 ft 470 kts 83°
2026-05-05 18:54 -35.17836 140.54546 35235 ft 471 kts 83°
2026-05-05 18:54 -35.17300 140.62528 35232 ft 472 kts 83°
2026-05-05 18:55 -35.16759 140.70522 35231 ft 472 kts 83°
2026-05-05 18:55 -35.16215 140.78493 35234 ft 472 kts 83°
2026-05-05 18:56 -35.15661 140.86499 35231 ft 472 kts 83°
2026-05-05 18:56 -35.15104 140.94499 35230 ft 472 kts 83°
2026-05-05 18:57 -35.14542 141.02488 35230 ft 472 kts 83°
2026-05-05 18:57 -35.13976 141.10469 35229 ft 472 kts 83°
2026-05-05 18:58 -35.13407 141.18418 35222 ft 471 kts 83°
2026-05-05 18:58 -35.12829 141.26393 35217 ft 471 kts 83°
2026-05-05 18:59 -35.12247 141.34356 35222 ft 470 kts 83°
2026-05-05 18:59 -35.11656 141.42368 35335 ft 478 kts 83°
2026-05-05 19:00 -35.11354 141.46431 35580 ft 479 kts 83°
2026-05-05 19:00 -35.11053 141.50476 35924 ft 478 kts 83°
2026-05-05 19:00 -35.10751 141.54522 36271 ft 476 kts 83°
2026-05-05 19:00 -35.10452 141.58504 36538 ft 477 kts 83°
2026-05-05 19:01 -35.10147 141.62540 36782 ft 477 kts 83°
2026-05-05 19:01 -35.09843 141.66549 37213 ft 472 kts 83°
2026-05-05 19:01 -35.09542 141.70516 37675 ft 467 kts 83°
2026-05-05 19:01 -35.09240 141.74463 37873 ft 468 kts 83°
2026-05-05 19:02 -35.08934 141.78441 37989 ft 471 kts 82°
2026-05-05 19:02 -35.08624 141.82445 38191 ft 472 kts 82°
2026-05-05 19:02 -35.08319 141.86377 38441 ft 471 kts 82°
2026-05-05 19:02 -35.08010 141.90346 38690 ft 470 kts 82°
2026-05-05 19:03 -35.07698 141.94336 38849 ft 472 kts 82°
2026-05-05 19:03 -35.07384 141.98334 38939 ft 475 kts 82°
2026-05-05 19:03 -35.07065 142.02363 39042 ft 477 kts 82°
2026-05-05 19:03 -35.06746 142.06392 39168 ft 476 kts 82°
2026-05-05 19:04 -35.06103 142.14467 39219 ft 480 kts 82°
2026-05-05 19:04 -35.05449 142.22610 39230 ft 484 kts 82°
2026-05-05 19:05 -35.04788 142.30765 39222 ft 487 kts 82°
2026-05-05 19:05 -35.04117 142.38992 39220 ft 487 kts 82°
2026-05-05 19:06 -35.03438 142.47222 39219 ft 486 kts 82°
2026-05-05 19:06 -35.02757 142.55420 39218 ft 485 kts 82°
2026-05-05 19:07 -35.02187 142.62215 39222 ft 483 kts 82°
2026-05-05 19:07 -35.01383 142.71736 39216 ft 481 kts 82°
2026-05-05 19:08 -35.00698 142.79793 39217 ft 479 kts 82°
2026-05-05 19:08 -35.00005 142.87865 39217 ft 477 kts 82°
2026-05-05 19:09 -34.99310 142.95909 39219 ft 476 kts 82°
2026-05-05 19:09 -34.98610 143.03931 39225 ft 475 kts 82°
2026-05-05 19:10 -34.97906 143.11941 39223 ft 475 kts 82°
2026-05-05 19:10 -34.97318 143.18610 39221 ft 475 kts 82°
2026-05-05 19:11 -34.96954 143.26660 39221 ft 478 kts 92°
2026-05-05 19:11 -34.97486 143.34753 39221 ft 479 kts 94°
2026-05-05 19:12 -34.98089 143.42859 39221 ft 480 kts 94°
2026-05-05 19:12 -34.98633 143.50922 39224 ft 481 kts 93°
2026-05-05 19:13 -34.99142 143.59062 39221 ft 482 kts 93°
2026-05-05 19:13 -34.99636 143.67221 39224 ft 483 kts 93°
2026-05-05 19:14 -35.00126 143.75417 39221 ft 484 kts 93°
2026-05-05 19:14 -35.00610 143.83604 39220 ft 484 kts 93°
2026-05-05 19:15 -35.01089 143.91794 39221 ft 484 kts 93°
2026-05-05 19:15 -35.01563 143.99979 39220 ft 483 kts 93°
2026-05-05 19:16 -35.02033 144.08154 39218 ft 482 kts 93°
2026-05-05 19:16 -35.02492 144.16263 39209 ft 482 kts 92°
2026-05-05 19:17 -35.02950 144.24424 39210 ft 481 kts 92°
2026-05-05 19:17 -35.03400 144.32572 39211 ft 480 kts 92°
2026-05-05 19:18 -35.03846 144.40705 39208 ft 480 kts 92°
2026-05-05 19:18 -35.04284 144.48844 39213 ft 480 kts 92°
2026-05-05 19:19 -35.04717 144.56976 39207 ft 480 kts 92°
2026-05-05 19:19 -35.05146 144.65099 39202 ft 480 kts 92°
2026-05-05 19:20 -35.05563 144.73183 39201 ft 480 kts 92°
2026-05-05 19:20 -35.05980 144.81307 39210 ft 480 kts 92°
2026-05-05 19:21 -35.06395 144.89442 39208 ft 480 kts 92°
2026-05-05 19:21 -35.06800 144.97567 39222 ft 480 kts 92°
2026-05-05 19:22 -35.07200 145.05702 39222 ft 480 kts 92°
2026-05-05 19:22 -35.07595 145.13848 39219 ft 481 kts 92°
2026-05-05 19:23 -35.07985 145.21999 39220 ft 481 kts 92°
2026-05-05 19:23 -35.08372 145.30165 39225 ft 482 kts 92°
2026-05-05 19:24 -35.08750 145.38297 39221 ft 482 kts 92°
2026-05-05 19:24 -35.09127 145.46483 39221 ft 483 kts 92°
2026-05-05 19:25 -35.09496 145.54681 39222 ft 483 kts 92°
2026-05-05 19:25 -35.09862 145.62884 39220 ft 484 kts 92°
2026-05-05 19:26 -35.10220 145.71038 39221 ft 484 kts 92°
2026-05-05 19:26 -35.10575 145.79261 39221 ft 484 kts 91°
2026-05-05 19:27 -35.10925 145.87475 39223 ft 484 kts 91°
2026-05-05 19:27 -35.11268 145.95688 39218 ft 483 kts 91°
2026-05-05 19:28 -35.11603 146.03834 39221 ft 483 kts 91°
2026-05-05 19:28 -35.11934 146.12039 39220 ft 483 kts 91°
2026-05-05 19:29 -35.12260 146.20231 39223 ft 483 kts 91°